Preview of NWS' New Version of Forecast
This preview is not operational and should not be used for support decisions.

Regional Weather Roundup (RWR)

Issued by National Weather Service (NWS)

                            
000
ASUS43 KLSX 220957
RWRMO 

WEATHER SUMMARY FOR MISSOURI
NATIONAL WEATHER SERVICE SPRINGFIELD MO
500 AM CDT MON JUL 22 2019

NOTE: "FAIR" INDICATES FEW OR NO CLOUDS BELOW 12,000 FEET WITH NO
       SIGNIFICANT WEATHER AND/OR OBSTRUCTIONS TO VISIBILITY.
       CURRENT SKY AND/OR WEATHER CONDITIONS ARE NOT AVAILABLE FOR
       CHILLICOTHE AND FARMINGTON.

MOZ001>031-035>038-043-044-053-054-221100-
...NORTHERN AND WESTERN MISSOURI...
  
CITY           SKY/WX    TMP DP  RH WIND       PRES   REMARKS
KANSAS CTY INT CLEAR     67  65  93 N12       30.08R                  
LEE'S SUMMIT   PTCLDY    69  66  90 N13       30.06R                  
ST JOSEPH      PTCLDY    67  64  90 N7        30.11R                  
CHILLICOTHE      N/A     69  65  86 VRB5      30.08R                  
     
$$
MOZ066>068-077>081-088>096-101>105-221100-
...SOUTHWEST MISSOURI...
  
CITY           SKY/WX    TMP DP  RH WIND       PRES   REMARKS
SPRINGFIELD    LGT RAIN  72  69  90 W7        29.97F                  
JOPLIN         LGT RAIN  71  70  96 W5        29.99S                  
               
$$
MOZ032>034-039>042-045>050-055>058-069>072-221100-
...CENTRAL MISSOURI...  
  
CITY           SKY/WX    TMP DP  RH WIND       PRES   REMARKS
COLUMBIA       NOT AVBL                                               
ROLLA          HVY RAIN  70  68  93 CALM      29.98R VSB 1            
SEDALIA        CLOUDY    67  32  27 N15       30.02R                  
WARRENSBURG    CLOUDY    68  66  94 N8        30.02S                  
               
$$
MOZ051-052-059>065-221100-
...EAST CENTRAL MISSOURI...
  
CITY           SKY/WX    TMP DP  RH WIND       PRES   REMARKS
ST LOUIS INTL  HVY RAIN  75  72  90 NE3       29.93S FOG              
SPIRIT OF STL  HVY RAIN  75  73  94 W12       29.94R FOG              
                   
$$
MOZ072>076-082>087-097>100-106>115-221100-
...SOUTH CENTRAL AND SOUTHEAST MISSOURI...
  
CITY           SKY/WX    TMP DP  RH WIND       PRES   REMARKS
CAPE GIRARDEAU FAIR      73  71  93 SE5       29.88S                  
POPLAR BLUFF   FAIR      74  74 100 S5        29.87F                  
WEST PLAINS    PTCLDY    71  69  93 NE3       29.95F                  
                                       
$$